Location: Altenst�hlen
(53.5567°N, 8.9425°E)
Time: 15:31:02
(UTC+00:00)

STARLINK-25 - Pass Details

Date: 23 October 2019
Orbit: 548 x 552 km, 53.0° (Epoch: 11 November)

Event Time Altitude Azimuth Distance (km) Brightness Sun altitude
Rises 17:35:00 0° 274° (W) 2,718 9.2 -13.1°
Reaches altitude 10° 17:37:14 10° 274° (W) 1,824 7.7 -13.5°
Maximum altitude 17:41:23 81° 188° (S) 561 3.6 -14.1°
Enters shadow 17:43:45 25° 102° (ESE) 1,141 4.6 -14.4°
